Starlink 30235

operational
NORAD ID: 57294 Int'l Des: 2023-096 Owner: SPXS Country: US Constellation: starlink
LEOCIRCULAR

Über Starlink 30235

Beschreibung wird geladen...

Live-Position

3D-Globus wird geladen...

Nächste Überflüge

Höhenverlauf

Altitude vs Time

uPlot chart will show altitude changes over time

Zweizeiliger Elementsatz

1 57294U 23096E 25308.70267403 -.00000462 00000-0 -19151-4 0 9999
2 57294 43.0016 182.5199 0000918 270.8286 89.2451 15.02533410128812
Epoch: 4. Nov. 2025 • Age: 11 hours

Aktueller Status

Höhe 571.5 km
Geschwindigkeit 7.58 km/s
Subsatellitenpunkt -42.37°S, 21.77°W
Startdatum 10. Juli 2023
Alter 2.3 years
Typ internet

Technische Details

Klassifizierung Payload
Masse 730.00 kg
Trockenmasse 700.00 kg
Gesamtmasse 730.00 kg
Länge 0.30 m
Durchmesser 4.10 m
Spannweite 29.00 m
Form Box + pan
Hersteller SPXS
Bus-Typ Starlink V2M
Phasenstatus In Orbit
Besitzer/Staat SPXS/US

Große Konstellationen

Loading constellations...